{"data":{"norad_id":57026,"epoch":"2026-09-21T21:28:47.788320Z","epoch_age_seconds":79896,"freshness":"FRESH","line1":"1 57026U 23085Y   26264.89499755  .00011992  00000+0  31961-3 0  9998","line2":"2 57026  97.5036  20.2011 0006087  82.1326 278.0609 15.38302172181678","mean_motion":15.38302172,"eccentricity":0.0006087,"inclination_deg":97.5036,"raan_deg":20.2011,"arg_perigee_deg":82.1326,"mean_anomaly_deg":278.0609,"bstar":0.00031961,"rev_number":18167,"period_min":93.60969686,"perigee_km":446.97271208511,"apogee_km":455.28666134952,"semimajor_km":6829.2666867173,"source":"CELESTRAK","updated_at":"2026-09-22T09:00:25.998797Z"}}